When you browse on this site, cookies collect data to enhance your experience and personalize the content and advertising you see.
Visit our Privacy Policy to learn more. By continuing to use the site, you agree to this use of cookies and data.
  • In Lithuania
  • List of Countries
  • For 7 days
  • Water Temperature
  • Satellite Maps
  • Weather Map
  • Weather Widgets
  • user-avatar
    Login

    Hourly Weather Krasnodvorsk

    Today, 25 March, Monday

    Time Temperature Precipitation Wind Pressure Humidity
    00:00 +1°C° 0 mm 4 mps 761 mmHg 75%
    01:00 +1°C° 0 mm 4 mps 761 mmHg 76%
    02:00 +1°C° 0 mm 4 mps 761 mmHg 78%
    03:00 +2°C° 0 mm 3 mps 760 mmHg 81%
    04:00 +1°C° 0 mm 4 mps 760 mmHg 83%
    05:00 +1°C° 0 mm 4 mps 760 mmHg 84%
    06:00 +1°C° 0 mm 5 mps 760 mmHg 85%
    07:00 +2°C° 0 mm 5 mps 760 mmHg 82%
    08:00 +3°C° 0 mm 5 mps 760 mmHg 79%
    09:00 +5°C° 0 mm 5 mps 760 mmHg 72%
    10:00 +7°C° 0 mm 4 mps 760 mmHg 66%
    11:00 +8°C° 0 mm 4 mps 760 mmHg 61%
    12:00 +10°C° 0 mm 4 mps 760 mmHg 55%
    13:00 +10°C° 0 mm 4 mps 760 mmHg 54%
    14:00 +11°C° 0 mm 4 mps 760 mmHg 53%
    15:00 +11°C° 0 mm 4 mps 760 mmHg 52%
    16:00 +10°C° 0 mm 4 mps 760 mmHg 55%
    17:00 +10°C° 0 mm 4 mps 760 mmHg 58%
    18:00 +8°C° 0 mm 4 mps 760 mmHg 61%
    19:00 +8°C° 0 mm 3 mps 760 mmHg 64%
    20:00 +7°C° 0 mm 3 mps 761 mmHg 67%
    21:00 +6°C° 0 mm 2 mps 761 mmHg 70%
    22:00 +6°C° 0 mm 2 mps 761 mmHg 71%
    23:00 +6°C° 0 mm 2 mps 761 mmHg 71%

    Tomorrow, 26 March, Tuesday

    Time Temperature Precipitation Wind Pressure Humidity
    00:00 +5°C° 0 mm 2 mps 761 mmHg 71%
    01:00 +5°C° 0 mm 2 mps 761 mmHg 71%
    02:00 +5°C° 0 mm 2 mps 761 mmHg 71%
    03:00 +5°C° 0 mm 2 mps 761 mmHg 72%
    04:00 +5°C° 0 mm 2 mps 761 mmHg 74%
    05:00 +4°C° 0 mm 3 mps 761 mmHg 75%
    06:00 +3°C° 0 mm 3 mps 761 mmHg 77%
    07:00 +5°C° 0 mm 3 mps 761 mmHg 72%
    08:00 +6°C° 0 mm 4 mps 761 mmHg 66%
    09:00 +7°C° 0 mm 4 mps 761 mmHg 61%
    10:00 +10°C° 0 mm 4 mps 761 mmHg 55%
    11:00 +11°C° 0 mm 4 mps 760 mmHg 49%
    12:00 +13°C° 0 mm 4 mps 760 mmHg 43%
    13:00 +13°C° 0 mm 4 mps 760 mmHg 41%
    14:00 +14°C° 0 mm 4 mps 759 mmHg 39%
    15:00 +15°C° 0 mm 4 mps 759 mmHg 37%
    16:00 +14°C° 0 mm 3 mps 759 mmHg 40%
    17:00 +15°C° 0 mm 2 mps 759 mmHg 43%
    18:00 +14°C° 0 mm 2 mps 759 mmHg 46%
    19:00 +13°C° 0 mm 2 mps 759 mmHg 49%
    20:00 +12°C° 0 mm 1 mps 759 mmHg 52%
    21:00 +11°C° 0 mm 1 mps 759 mmHg 55%
    22:00 +10°C° 0 mm 1 mps 759 mmHg 57%
    23:00 +9°C° 0 mm 2 mps 759 mmHg 59%

    Day after tomorrow, 27 March, Wednesday

    Time Temperature Precipitation Wind Pressure Humidity
    00:00 +8°C° 0 mm 2 mps 758 mmHg 61%
    01:00 +7°C° 0 mm 2 mps 758 mmHg 63%
    02:00 +7°C° 0 mm 2 mps 758 mmHg 65%
    03:00 +6°C° 0 mm 2 mps 758 mmHg 67%
    04:00 +6°C° 0 mm 2 mps 758 mmHg 70%
    05:00 +6°C° 0 mm 2 mps 758 mmHg 73%
    06:00 +6°C° 0 mm 1 mps 758 mmHg 76%
    07:00 +6°C° 0.1 mm 2 mps 758 mmHg 76%
    08:00 +7°C° 0.1 mm 2 mps 759 mmHg 77%
    09:00 +8°C° 0.1 mm 2 mps 759 mmHg 78%
    10:00 +9°C° 0.1 mm 3 mps 759 mmHg 75%
    11:00 +10°C° 0.1 mm 3 mps 759 mmHg 72%
    12:00 +11°C° 0.1 mm 4 mps 759 mmHg 68%
    13:00 +11°C° 0.1 mm 4 mps 759 mmHg 61%
    14:00 +12°C° 0.1 mm 5 mps 759 mmHg 54%
    15:00 +13°C° 0.1 mm 6 mps 759 mmHg 47%
    16:00 +11°C° 0 mm 6 mps 759 mmHg 46%
    17:00 +10°C° 0 mm 6 mps 760 mmHg 45%
    18:00 +9°C° 0 mm 7 mps 760 mmHg 44%
    19:00 +8°C° 0 mm 6 mps 760 mmHg 44%
    20:00 +7°C° 0 mm 6 mps 761 mmHg 45%
    21:00 +5°C° 0 mm 6 mps 761 mmHg 45%
    22:00 +5°C° 0 mm 5 mps 761 mmHg 48%
    23:00 +5°C° 0 mm 5 mps 761 mmHg 51%

    28 March, Thursday

    Time Temperature Precipitation Wind Pressure Humidity
    00:00 +3°C° 0 mm 5 mps 761 mmHg 54%
    01:00 +3°C° 0 mm 5 mps 762 mmHg 58%
    02:00 +2°C° 0 mm 5 mps 762 mmHg 61%
    03:00 +2°C° 0 mm 5 mps 762 mmHg 65%
    04:00 +3°C° 0 mm 4 mps 762 mmHg 69%
    05:00 +3°C° 0 mm 4 mps 762 mmHg 73%
    06:00 +2°C° 0 mm 3 mps 763 mmHg 78%
    07:00 +4°C° 0 mm 2 mps 763 mmHg 73%
    08:00 +5°C° 0 mm 2 mps 763 mmHg 69%
    09:00 +6°C° 0 mm 2 mps 764 mmHg 65%
    10:00 +6°C° 0 mm 2 mps 764 mmHg 58%
    11:00 +7°C° 0 mm 2 mps 764 mmHg 52%
    12:00 +8°C° 0 mm 3 mps 764 mmHg 46%
    13:00 +9°C° 0.1 mm 3 mps 764 mmHg 43%
    14:00 +8°C° 0.1 mm 4 mps 764 mmHg 40%
    15:00 +8°C° 0.1 mm 4 mps 764 mmHg 37%
    16:00 +8°C° 0 mm 4 mps 765 mmHg 38%
    17:00 +7°C° 0 mm 4 mps 765 mmHg 38%
    18:00 +7°C° 0 mm 4 mps 765 mmHg 39%
    19:00 +7°C° 0 mm 3 mps 766 mmHg 41%
    20:00 +5°C° 0 mm 3 mps 766 mmHg 44%
    21:00 +6°C° 0 mm 2 mps 767 mmHg 46%
    22:00 +5°C° 0 mm 2 mps 767 mmHg 48%
    23:00 +5°C° 0 mm 2 mps 767 mmHg 49%

    29 March, Friday

    Time Temperature Precipitation Wind Pressure Humidity
    00:00 +4°C° 0 mm 2 mps 767 mmHg 51%
    01:00 +4°C° 0 mm 2 mps 767 mmHg 56%
    02:00 +2°C° 0 mm 3 mps 768 mmHg 61%
    03:00 +2°C° 0 mm 3 mps 768 mmHg 66%
    04:00 +1°C° 0 mm 3 mps 768 mmHg 68%
    05:00 +1°C° 0 mm 3 mps 768 mmHg 71%
    06:00 0°C° 0 mm 3 mps 768 mmHg 73%
    07:00 +2°C° 0 mm 2 mps 769 mmHg 66%
    08:00 +3°C° 0 mm 2 mps 769 mmHg 59%
    09:00 +4°C° 0 mm 2 mps 769 mmHg 52%
    10:00 +4°C° 0 mm 3 mps 768 mmHg 48%
    11:00 +5°C° 0 mm 3 mps 768 mmHg 43%
    12:00 +6°C° 0 mm 4 mps 768 mmHg 38%
    13:00 +6°C° 0 mm 4 mps 767 mmHg 38%
    14:00 +7°C° 0 mm 4 mps 766 mmHg 37%
    15:00 +7°C° 0 mm 5 mps 766 mmHg 37%
    16:00 +7°C° 0 mm 5 mps 765 mmHg 40%
    17:00 +7°C° 0 mm 5 mps 765 mmHg 42%
    18:00 +6°C° 0 mm 5 mps 765 mmHg 44%
    19:00 +6°C° 0 mm 5 mps 765 mmHg 47%
    20:00 +5°C° 0 mm 4 mps 765 mmHg 51%
    21:00 +5°C° 0 mm 4 mps 765 mmHg 54%
    22:00 +4°C° 0.1 mm 4 mps 764 mmHg 57%
    23:00 +4°C° 0.1 mm 4 mps 764 mmHg 60%

    30 March, Saturday

    Time Temperature Precipitation Wind Pressure Humidity
    00:00 +4°C° 0.1 mm 4 mps 764 mmHg 63%
    01:00 +4°C° 0 mm 3 mps 763 mmHg 66%
    02:00 +3°C° 0 mm 3 mps 763 mmHg 69%
    03:00 +4°C° 0 mm 2 mps 763 mmHg 73%
    04:00 +3°C° 0 mm 2 mps 764 mmHg 75%
    05:00 +3°C° 0 mm 2 mps 764 mmHg 78%
    06:00 +2°C° 0 mm 2 mps 764 mmHg 81%
    07:00 +3°C° 0 mm 2 mps 765 mmHg 75%
    08:00 +4°C° 0 mm 2 mps 765 mmHg 70%
    09:00 +5°C° 0 mm 2 mps 766 mmHg 65%
    10:00 +6°C° 0 mm 2 mps 766 mmHg 60%
    11:00 +7°C° 0 mm 2 mps 766 mmHg 55%
    12:00 +8°C° 0 mm 2 mps 767 mmHg 50%
    13:00 +9°C° 0 mm 2 mps 766 mmHg 48%
    14:00 +10°C° 0 mm 1 mps 766 mmHg 45%
    15:00 +10°C° 0 mm 1 mps 766 mmHg 43%
    16:00 +10°C° 0 mm 1 mps 766 mmHg 43%
    17:00 +10°C° 0 mm 1 mps 766 mmHg 44%
    18:00 +10°C° 0 mm 1 mps 766 mmHg 44%
    19:00 +8°C° 0 mm 2 mps 766 mmHg 47%
    20:00 +8°C° 0 mm 2 mps 767 mmHg 50%
    21:00 +7°C° 0 mm 2 mps 767 mmHg 53%
    22:00 +5°C° 0 mm 3 mps 767 mmHg 55%
    23:00 +5°C° 0 mm 3 mps 767 mmHg 57%
    Show more